Tracking 25648 objects as of 17-May-2022
HD Live streaming from Space Station
objects crossing your sky now

SL-14 DEB

Track SL-14 DEB now!
10-day predictions


NORAD ID: 45311
Int'l Code: 1991-056AZ
Perigee: 1,187.2 km
Apogee: 1,209.7 km
Inclination: 82.5 °
Period: 109.2 minutes
Semi major axis: 7569 km
RCS: Unknown
Launch date: August 15, 1991
Source: Commonwealth of Independent States (former USSR) (CIS)
Launch site: PLESETSK MISSILE AND SPACE COMPLEX (PKMTR)

Note: This is SATELLITE DEBRIS
aabbcc
Your satellite tracking list
Your tracking list is empty




NASA's NSSDC Master Catalog

Two Line Element Set (TLE):
1 45311U 91056AZ  22137.20222574  .00000163  00000-0  38322-3 0  9995
2 45311  82.5471 111.5835 0014854 248.7401 111.2136 13.18278776106984
Source of the keplerian elements: AFSPC